RH
53 69 87 82 81 81 78 80 82 84 84 81 78 79 76 74 70 68 67 70 71 74 68 68 73 75 75 75 75 78 80 81 80 82 84 82 78 76 77 75 69 57 69
52 63 87 85 82 82 81 82 86 87 87 84 80 80 76 72 70 69 67 67 68 70 74 73 70 73 75 74 74 72 80 82 81 85 86 88 85 77 76 76 73 61 67
53 61 61 86 86 86 86 87 87 87 85 83 81 80 79 73 71 69 68 66 66 64 69 73 72 71 72 73 74 75 81 81 80 82 80 62 64 75 72 69 69 67 66
53 59 53 88 88 88 88 87 87 86 85 84 81 81 79 73 72 71 70 67 67 68 71 71 72 75 74 75 76 78 81 80 77 78 56 46 48 71 65 66 65 65 67
55 56 59 86 87 86 87 88 87 87 85 84 84 83 78 73 73 72 71 74 76 77 77 72 74 74 73 74 74 76 81 80 79 64 43 47 49 60 63 64 65 68 68
52 53 79 88 87 86 85 86 86 86 83 82 83 81 80 76 76 74 78 80 81 81 76 74 75 75 72 69 66 72 76 78 82 42 45 46 53 64 68 68 68 68 68
60 54 59 87 85 85 86 86 86 84 84 83 82 79 78 78 77 79 82 85 84 82 76 75 74 72 71 72 69 67 72 77 58 40 41 44 57 66 68 69 69 68 68
84 59 63 84 88 86 86 86 85 84 83 82 82 80 80 79 79 81 83 84 83 80 79 76 72 74 72 71 72 71 72 75 45 37 42 50 70 67 68 68 68 69 68
80 73 67 58 70 90 87 86 85 86 87 86 84 84 85 84 83 82 84 83 82 81 82 80 74 74 73 71 73 76 75 76 55 38 38 47 75 66 67 68 67 68 68
62 73 72 68 55 52 56 90 91 89 89 88 89 88 90 91 89 86 87 84 83 84 85 84 76 75 75 74 80 79 80 78 43 42 41 61 72 65 66 66 66 66 66
37 52 68 72 67 64 50 56 87 93 93 92 88 95 91 60 61 65 76 88 87 85 83 83 79 80 83 84 88 83 82 46 35 38 38 78 76 66 66 67 67 66 66
32 33 37 60 71 65 65 47 52 48 53 53 56 58 62 49 49 58 74 90 89 89 89 85 82 85 84 49 59 82 56 43 39 40 43 78 72 73 67 69 70 69 69
29 31 31 34 58 71 65 63 53 53 60 52 45 46 47 43 61 57 72 70 70 86 65 72 70 60 51 44 42 44 45 41 40 41 54 76 70 70 71 69 72 72 72
36 31 31 30 38 60 67 60 55 72 65 55 50 45 46 48 51 69 73 73 64 62 51 49 44 43 41 41 40 40 39 42 40 41 48 81 77 71 70 72 72 75 75
35 38 35 32 34 48 62 55 49 50 54 50 53 48 51 63 64 65 72 81 79 72 53 46 40 36 38 40 43 40 39 37 37 40 40 84 83 80 75 72 72 74 70
26 32 36 34 31 38 58 59 49 47 48 58 57 52 55 54 75 72 73 67 64 77 59 54 44 40 39 44 44 40 38 36 34 36 39 48 82 82 79 76 72 70 70
24 27 31 35 34 34 44 58 55 48 43 53 58 54 53 58 69 75 78 82 77 76 65 62 59 48 44 42 43 42 39 35 34 32 36 41 54 87 84 75 73 72 72
25 26 28 27 32 32 40 52 56 62 46 48 57 54 55 56 61 63 71 68 67 72 75 75 63 57 63 54 49 47 46 39 36 34 37 38 44 42 76 82 81 76 75
26 24 29 32 31 32 36 47 64 72 66 46 49 54 54 53 56 60 59 56 56 71 69 66 66 63 62 63 62 54 46 49 45 36 37 39 42 49 52 70 86 86 85
30 26 27 28 28 29 29 45 62 87 86 65 52 49 53 57 50 57 57 56 55 62 72 70 69 68 64 64 59 56 55 49 47 46 44 42 44 51 53 58 63 68 86
38 35 31 30 30 31 32 41 57 91 90 84 64 53 49 52 56 58 56 58 58 70 72 70 76 77 81 71 77 69 59 52 52 51 51 51 52 51 51 56 58 60 64
41 39 38 35 33 32 34 38 48 66 78 74 68 64 60 54 56 56 59 60 61 75 80 79 82 85 85 80 88 81 82 61 60 56 54 51 51 51 54 58 58 65 78
42 41 37 36 38 34 33 36 46 54 66 72 73 72 65 62 64 64 62 64 70 78 82 80 84 90 95 96 92 86 77 73 54 64 62 63 54 62 65 71 77 88 86
53 48 43 38 38 37 40 39 44 56 70 71 69 62 62 60 61 65 70 66 72 76 79 83 83 86 88 87 94 84 74 85 84 78 64 73 73 70 73 84 88 87 85
62 58 51 45 46 46 43 44 48 52 65 67 69 66 65 68 66 66 69 71 75 78 82 88 95 94 94 94 94 91 86 88 92 91 84 79 83 78 73 72 75 76 78
61 64 58 53 50 45 45 45 50 56 60 71 71 80 74 78 74 70 71 75 77 83 89 91 92 95 92 91 92 96 94 92 91 99 99 89 83 69 66 68 70 70 74
Wind_Speed
3 11 13 12 10 9 7 10 11 11 11 12 12 11 9 9 9 9 8 6 7 5 9 8 8 11 11 12 12 13 12 12 11 12 11 10 12 12 14 11 12 13 13
2 12 12 12 11 10 9 9 11 10 10 9 11 12 10 9 8 8 8 7 6 8 10 9 9 11 11 12 11 11 11 11 10 9 12 12 11 14 14 15 14 11 12
2 10 14 11 12 11 11 11 11 10 9 9 9 9 11 9 9 8 9 7 7 6 8 11 11 11 9 9 10 10 9 9 5 5 6 8 10 12 12 12 12 12 12
2 9 12 12 12 11 11 11 11 10 9 9 8 9 10 9 10 10 9 9 8 8 8 9 9 12 9 8 8 8 8 5 1 5 8 9 10 10 10 10 10 10 11
5 9 7 15 11 11 10 10 10 9 9 9 9 9 10 9 10 11 10 10 7 7 10 8 10 10 7 5 5 6 6 3 5 6 6 7 8 8 8 8 10 10 10
2 5 12 11 10 9 9 9 9 9 8 6 7 7 10 12 11 11 9 7 8 8 10 10 10 7 4 3 4 4 3 1 7 4 7 3 11 8 8 8 8 8 8
7 3 10 9 9 8 9 8 9 10 10 9 7 8 8 9 8 9 9 11 10 9 10 11 8 6 2 5 5 3 2 4 9 3 3 5 8 7 7 7 7 7 7
11 3 7 9 8 8 8 8 8 7 7 7 7 5 8 8 6 7 9 12 12 10 10 10 8 6 4 3 6 5 1 5 6 2 3 6 6 6 6 5 5 5 5
7 8 6 7 10 7 9 9 9 8 7 7 7 6 6 6 6 7 11 13 13 11 10 10 8 6 4 5 5 4 3 6 9 3 2 5 5 4 4 4 3 3 3
4 4 6 7 6 11 10 8 8 10 10 10 9 8 7 5 5 8 11 11 12 11 10 9 8 7 5 3 6 4 3 7 9 2 3 6 6 4 3 2 2 2 1
5 5 3 5 5 7 8 11 9 8 7 7 7 7 6 8 11 10 11 13 11 11 9 9 8 6 5 4 6 5 4 7 5 3 2 10 4 4 4 3 3 3 2
8 6 6 5 6 7 6 7 9 10 9 10 10 11 9 11 7 10 10 11 11 10 8 8 8 7 6 7 6 7 5 8 4 3 2 9 5 5 6 6 6 6 6
10 8 8 7 7 7 8 6 5 4 4 6 12 11 11 9 6 6 5 7 8 8 8 8 8 8 10 8 6 7 8 6 3 3 4 10 7 8 8 8 9 9 9
11 12 10 9 8 9 6 8 9 6 7 7 7 11 7 5 5 6 5 7 9 8 10 10 7 10 11 10 8 7 6 5 4 3 2 11 9 9 10 11 11 11 11
11 11 11 10 9 9 9 9 8 6 7 8 7 10 6 4 4 7 8 6 6 5 8 8 9 8 10 9 7 9 8 8 8 4 3 10 10 10 11 12 11 11 10
13 12 10 11 11 9 9 12 9 8 8 8 8 9 6 7 3 5 6 9 10 8 8 8 8 7 7 8 10 9 9 8 7 6 4 5 11 11 12 13 13 12 11
14 12 10 10 11 11 11 11 10 10 9 9 8 10 10 8 6 6 5 6 7 7 9 8 6 7 8 9 11 9 7 10 8 9 7 5 6 11 12 14 15 14 14
15 16 14 11 10 12 11 9 9 9 9 9 9 8 11 11 9 10 8 8 8 8 6 7 7 8 4 6 6 7 6 7 8 9 7 6 5 6 9 13 14 15 15
16 17 14 13 14 13 12 9 8 9 9 9 8 8 9 10 11 9 7 7 8 5 7 8 8 8 8 8 7 9 7 6 6 7 10 8 7 5 4 7 12 12 13
16 16 16 12 14 14 11 9 7 5 5 8 8 9 12 8 10 8 7 8 8 7 6 8 9 8 8 8 9 9 8 8 6 6 7 6 6 6 7 8 6 6 13
15 17 17 16 15 10 9 9 8 7 6 7 9 11 13 11 12 9 7 8 7 7 7 10 9 10 7 8 5 7 7 9 10 8 7 7 7 6 8 7 6 5 4
14 15 16 16 14 12 8 7 8 8 8 10 9 10 10 12 11 10 10 8 8 6 7 9 9 8 7 8 5 5 3 8 10 9 8 9 8 5 6 5 5 4 3
14 14 14 14 13 12 12 8 7 8 7 8 9 8 10 13 11 10 10 8 8 7 7 9 9 10 6 4 9 5 4 6 5 4 5 4 5 1 2 2 3 3 3
15 12 13 13 13 12 12 10 13 9 9 8 8 9 8 12 11 10 10 9 9 7 9 8 8 10 10 10 5 9 10 1 3 3 3 2 2 5 6 4 5 6 7
18 12 11 13 13 12 12 12 10 12 7 8 8 10 8 7 10 10 9 9 9 6 7 8 7 10 8 8 7 4 11 8 3 4 3 3 2 4 5 5 5 4 7
15 13 10 12 12 12 12 13 13 13 12 9 9 6 5 5 6 8 9 7 8 8 9 8 9 9 9 7 5 3 3 4 6 3 3 5 6 5 4 3 4 6 6
Wind_Direction
130 144 149 154 158 147 145 148 161 164 162 158 148 145 137 138 138 132 139 134 135 159 156 149 117 98 98 93 88 84 80 80 79 76 73 93 91 77 62 61 68 70 64
3 156 150 155 161 152 144 145 151 155 161 158 157 150 146 149 149 145 148 147 131 103 116 122 116 100 93 95 94 96 89 89 97 106 105 85 72 72 64 60 55 72 68
10 157 166 162 160 160 150 148 151 155 163 160 164 162 145 158 162 161 159 156 146 125 118 116 110 105 98 101 103 99 95 96 110 150 184 86 85 70 69 70 72 72 68
293 152 175 167 165 166 160 159 159 167 164 159 166 167 145 169 170 172 176 173 158 145 125 118 124 92 99 105 103 101 94 86 7 292 216 126 95 72 77 79 75 79 83
273 159 157 161 174 174 170 166 166 173 167 162 171 163 155 183 181 182 184 182 166 134 125 126 101 105 104 106 105 102 99 77 297 296 65 47 78 75 75 76 88 73 62
226 176 127 146 166 178 176 176 170 172 173 168 171 172 172 193 198 188 181 181 161 135 134 110 114 116 126 129 116 112 90 295 287 65 77 77 68 90 81 75 76 73 71
332 208 155 146 171 185 185 184 184 189 186 187 194 191 206 208 195 206 181 159 148 145 137 133 135 135 138 177 139 107 82 294 288 87 96 86 93 96 86 79 75 75 72
354 293 133 147 166 181 199 200 201 197 200 203 210 210 216 225 213 202 177 162 154 156 150 148 150 148 134 143 149 127 142 271 254 118 95 90 101 104 99 88 81 77 76
11 349 294 184 179 189 190 199 204 213 209 205 211 213 221 223 225 224 185 169 162 163 162 160 162 161 158 154 144 142 192 275 290 104 195 139 130 124 113 107 99 94 90
27 356 333 320 208 199 200 199 201 203 208 211 209 207 204 211 212 202 175 169 168 167 169 167 175 176 172 171 154 159 207 269 267 169 227 102 119 156 151 152 154 143 133
352 355 314 291 286 294 246 179 193 221 213 208 202 205 201 221 192 190 193 160 174 173 179 169 184 186 162 153 163 179 223 240 222 215 230 126 145 207 197 208 228 236 230
305 319 315 278 259 260 277 228 206 211 215 216 207 207 211 220 211 185 176 164 175 172 170 180 194 185 193 209 183 184 234 255 247 234 134 138 185 232 228 230 239 247 252
285 283 287 291 274 250 256 249 238 211 229 229 220 217 210 226 149 187 169 177 191 184 193 190 192 211 214 233 207 196 217 247 252 240 125 151 203 237 247 239 240 248 255
278 278 273 270 273 246 231 240 225 189 217 223 225 235 216 216 190 172 196 189 199 180 209 191 204 208 220 220 227 231 237 230 246 258 192 166 195 232 251 260 258 255 253
265 263 265 261 258 263 238 247 239 219 202 219 230 224 231 226 185 194 186 197 212 215 205 208 212 207 214 218 221 241 243 244 237 240 256 175 192 221 244 256 265 267 266
270 263 251 253 251 250 248 244 245 231 219 223 214 230 203 216 230 222 211 199 205 211 207 216 214 220 213 216 227 234 235 243 256 261 255 205 194 205 230 247 256 262 268
278 267 253 250 246 245 243 245 247 245 227 205 224 223 219 215 197 212 228 209 217 215 217 200 233 233 220 216 223 228 227 239 241 243 245 245 203 202 213 235 246 253 258
270 256 254 254 244 242 241 239 242 250 234 227 205 220 214 216 207 214 203 223 207 200 205 212 213 225 231 231 221 229 239 228 245 248 249 248 246 253 201 223 232 244 252
264 256 250 248 244 236 239 236 220 257 253 227 204 210 215 219 206 219 220 231 234 230 220 209 215 219 222 229 229 224 235 232 223 241 241 239 245 248 258 230 218 229 244
269 254 252 248 241 242 236 228 210 221 262 261 228 207 207 219 218 218 230 229 233 227 219 225 222 223 231 221 232 234 237 241 239 248 250 253 221 218 230 237 233 221 226
270 260 252 249 240 236 230 228 215 204 208 236 239 228 217 210 210 231 228 232 236 225 241 233 229 226 225 240 250 244 249 244 246 232 246 241 243 230 233 235 245 247 240
261 255 248 248 239 232 230 233 242 199 215 223 221 224 234 230 223 223 227 232 231 218 226 229 224 226 241 228 212 250 225 239 233 227 225 230 228 232 234 243 254 264 339
269 247 244 240 231 230 233 231 230 239 236 224 224 220 215 227 231 232 230 231 225 232 233 230 223 210 220 203 228 217 205 231 240 195 210 247 221 183 297 29 37 31 279
289 257 245 238 231 223 226 227 225 230 228 235 229 222 218 222 225 224 230 229 226 231 236 230 220 221 220 239 218 226 249 84 280 221 198 224 249 197 212 186 194 207 208
293 269 254 242 240 239 214 229 226 230 225 242 241 241 221 211 231 231 228 226 236 235 237 228 221 217 216 225 225 219 224 228 232 243 273 279 216 217 215 200 208 215 214
280 267 248 243 236 226 218 218 222 231 215 224 237 229 226 235 225 235 231 229 230 226 222 219 224 222 222 227 209 183 196 196 222 182 213 253 247 276 298 235 224 229 227